Time,TemperatureF,DewpointF,PressureIn,WindDirection,WindDirectionDegrees,WindSpeedMPH,WindSpeedGustMPH,Humidity,HourlyPrecipIn,Conditions,Clouds,dailyrainin,SoftwareType,DateUTC
2013-03-17 00:03:00,27.0,20.0,30.14,NW,309,9.0,-999.0,75,-99.99,,,-99.99,,2013-03-17 04:03:00,
2013-03-17 00:13:00,27.0,20.0,30.14,NW,309,9.0,-999.0,75,-99.99,,,-99.99,,2013-03-17 04:13:00,
2013-03-17 00:23:00,27.0,20.0,30.14,NNW,327,4.0,-999.0,74,-99.99,,,-99.99,,2013-03-17 04:23:00,
2013-03-17 00:32:00,26.0,19.0,30.15,West,279,4.0,-999.0,74,-99.99,,,-99.99,,2013-03-17 04:32:00,
2013-03-17 00:43:00,26.0,19.0,30.15,West,279,4.0,-999.0,74,-99.99,,,-99.99,,2013-03-17 04:43:00,
2013-03-17 00:53:00,27.0,20.0,30.15,NW,309,2.0,-999.0,75,-99.99,,,-99.99,,2013-03-17 04:53:00,
2013-03-17 01:03:00,27.0,20.0,30.15,NW,312,1.0,-999.0,75,-99.99,,,-99.99,,2013-03-17 05:03:00,
2013-03-17 01:12:00,27.0,20.0,30.15,NW,312,1.0,-999.0,75,-99.99,,,-99.99,,2013-03-17 05:12:00,
2013-03-17 01:22:00,27.0,20.0,30.15,NW,315,2.0,-999.0,75,-99.99,,,-99.99,,2013-03-17 05:22:00,
2013-03-17 01:32:00,27.0,20.0,30.15,NW,315,1.0,-999.0,75,-99.99,,,-99.99,,2013-03-17 05:32:00,
2013-03-17 01:42:00,27.0,20.0,30.15,NW,315,1.0,-999.0,75,-99.99,,,-99.99,,2013-03-17 05:42:00,
2013-03-17 01:52:00,27.0,20.0,30.15,NW,315,0.0,-999.0,75,-99.99,,,-99.99,,2013-03-17 05:52:00,
2013-03-17 02:02:00,27.0,20.0,30.15,NW,315,0.0,-999.0,76,-99.99,,,-99.99,,2013-03-17 06:02:00,
2013-03-17 02:12:00,27.0,20.0,30.15,NW,315,0.0,-999.0,76,-99.99,,,-99.99,,2013-03-17 06:12:00,
2013-03-17 02:22:00,27.0,20.0,30.15,NW,315,0.0,-999.0,76,-99.99,,,-99.99,,2013-03-17 06:22:00,
2013-03-17 02:32:00,27.0,20.0,30.16,NW,315,0.0,-999.0,76,-99.99,,,-99.99,,2013-03-17 06:32:00,
2013-03-17 02:42:00,27.0,20.0,30.16,NW,315,0.0,-999.0,76,-99.99,,,-99.99,,2013-03-17 06:42:00,
2013-03-17 02:53:00,27.0,20.0,30.16,NW,315,0.0,-999.0,76,-99.99,,,-99.99,,2013-03-17 06:53:00,
2013-03-17 03:02:00,27.0,20.0,30.17,NW,315,0.0,-999.0,76,-99.99,,,-99.99,,2013-03-17 07:02:00,
2013-03-17 03:12:00,27.0,20.0,30.17,NW,315,0.0,-999.0,76,-99.99,,,-99.99,,2013-03-17 07:12:00,
2013-03-17 03:22:00,27.0,20.0,30.17,NW,315,0.0,-999.0,76,-99.99,,,-99.99,,2013-03-17 07:22:00,
2013-03-17 03:32:00,27.0,21.0,30.17,NW,306,4.0,-999.0,77,-99.99,,,-99.99,,2013-03-17 07:32:00,
2013-03-17 03:42:00,27.0,21.0,30.17,NW,306,4.0,-999.0,77,-99.99,,,-99.99,,2013-03-17 07:42:00,
2013-03-17 03:52:00,28.0,22.0,30.17,WNW,300,8.0,-999.0,77,-99.99,,,-99.99,,2013-03-17 07:52:00,
2013-03-17 04:03:00,28.0,21.0,30.17,NNW,330,6.0,-999.0,75,-99.99,,,-99.99,,2013-03-17 08:03:00,
2013-03-17 04:13:00,28.0,20.0,30.18,NNW,327,7.0,-999.0,71,-99.99,,,-99.99,,2013-03-17 08:13:00,
2013-03-17 04:22:00,28.0,20.0,30.18,NNW,327,7.0,-999.0,71,-99.99,,,-99.99,,2013-03-17 08:22:00,
2013-03-17 04:33:00,28.0,20.0,30.18,NNW,327,7.0,-999.0,71,-99.99,,,-99.99,,2013-03-17 08:33:00,
2013-03-17 04:42:00,28.0,20.0,30.18,NNW,327,7.0,-999.0,71,-99.99,,,-99.99,,2013-03-17 08:42:00,
2013-03-17 04:52:00,28.0,20.0,30.17,NNW,348,5.0,-999.0,70,-99.99,,,-99.99,,2013-03-17 08:52:00,
2013-03-17 05:03:00,28.0,20.0,30.18,NW,317,5.0,-999.0,71,-99.99,,,-99.99,,2013-03-17 09:03:00,
2013-03-17 05:13:00,28.0,20.0,30.18,NW,317,5.0,-999.0,71,-99.99,,,-99.99,,2013-03-17 09:13:00,
2013-03-17 05:22:00,27.0,19.0,30.18,North,355,3.0,-999.0,71,-99.99,,,-99.99,,2013-03-17 09:22:00,
2013-03-17 05:32:00,27.0,19.0,30.19,NNW,333,4.0,-999.0,72,-99.99,,,-99.99,,2013-03-17 09:32:00,
2013-03-17 05:43:00,27.0,19.0,30.19,NNW,333,4.0,-999.0,72,-99.99,,,-99.99,,2013-03-17 09:43:00,
2013-03-17 05:53:00,27.0,19.0,30.18,North,351,4.0,-999.0,72,-99.99,,,-99.99,,2013-03-17 09:53:00,
2013-03-17 06:03:00,27.0,20.0,30.19,NNW,342,3.0,-999.0,73,-99.99,,,-99.99,,2013-03-17 10:03:00,
2013-03-17 06:13:00,27.0,20.0,30.19,NNW,342,3.0,-999.0,73,-99.99,,,-99.99,,2013-03-17 10:13:00,
2013-03-17 06:23:00,27.0,20.0,30.20,NNE,31,4.0,-999.0,73,-99.99,,,-99.99,,2013-03-17 10:23:00,
2013-03-17 06:33:00,27.0,20.0,30.19,North,355,3.0,-999.0,73,-99.99,,,-99.99,,2013-03-17 10:33:00,
2013-03-17 06:42:00,27.0,20.0,30.19,North,355,3.0,-999.0,73,-99.99,,,-99.99,,2013-03-17 10:42:00,
2013-03-17 06:52:00,27.0,19.0,30.20,NNE,15,5.0,-999.0,72,-99.99,,,-99.99,,2013-03-17 10:52:00,
2013-03-17 07:03:00,27.0,19.0,30.21,NNE,18,8.0,-999.0,70,-99.99,,,-99.99,,2013-03-17 11:03:00,
2013-03-17 07:12:00,27.0,19.0,30.21,NNE,18,8.0,-999.0,70,-99.99,,,-99.99,,2013-03-17 11:12:00,
2013-03-17 07:22:00,26.0,18.0,30.22,North,9,7.0,-999.0,70,-99.99,,,-99.99,,2013-03-17 11:22:00,
2013-03-17 07:32:00,26.0,17.0,30.23,NNE,28,11.0,-999.0,69,-99.99,,,-99.99,,2013-03-17 11:32:00,
2013-03-17 07:42:00,26.0,17.0,30.23,NNE,28,11.0,-999.0,69,-99.99,,,-99.99,,2013-03-17 11:42:00,
2013-03-17 07:52:00,25.0,16.0,30.24,North,5,7.0,-999.0,68,-99.99,,,-99.99,,2013-03-17 11:52:00,
2013-03-17 08:02:00,25.0,16.0,30.25,NNE,26,4.0,-999.0,68,-99.99,,,-99.99,,2013-03-17 12:02:00,
2013-03-17 08:12:00,25.0,16.0,30.25,NNE,26,4.0,-999.0,68,-99.99,,,-99.99,,2013-03-17 12:12:00,
2013-03-17 08:22:00,24.0,15.0,30.27,North,9,5.0,-999.0,68,-99.99,,,-99.99,,2013-03-17 12:22:00,
2013-03-17 08:33:00,24.0,15.0,30.27,NNE,18,6.0,-999.0,67,-99.99,,,-99.99,,2013-03-17 12:33:00,
2013-03-17 08:43:00,24.0,15.0,30.27,NNE,18,6.0,-999.0,67,-99.99,,,-99.99,,2013-03-17 12:43:00,
2013-03-17 08:52:00,24.0,15.0,30.28,NE,40,4.0,-999.0,67,-99.99,,,-99.99,,2013-03-17 12:52:00,
2013-03-17 09:02:00,24.0,15.0,30.29,NE,49,6.0,-999.0,68,-99.99,,,-99.99,,2013-03-17 13:02:00,
2013-03-17 09:12:00,24.0,15.0,30.29,NE,49,6.0,-999.0,68,-99.99,,,-99.99,,2013-03-17 13:12:00,
2013-03-17 09:22:00,24.0,15.0,30.31,NE,44,8.0,-999.0,67,-99.99,,,-99.99,,2013-03-17 13:22:00,
2013-03-17 09:32:00,24.0,14.0,30.32,ENE,74,8.0,-999.0,64,-99.99,,,-99.99,,2013-03-17 13:32:00,
2013-03-17 09:42:00,24.0,14.0,30.32,ENE,74,8.0,-999.0,64,-99.99,,,-99.99,,2013-03-17 13:42:00,
2013-03-17 09:52:00,25.0,14.0,30.32,NNE,19,7.0,-999.0,62,-99.99,,,-99.99,,2013-03-17 13:52:00,
2013-03-17 10:02:00,25.0,13.0,30.32,NE,37,8.0,-999.0,60,-99.99,,,-99.99,,2013-03-17 14:02:00,
2013-03-17 10:12:00,25.0,13.0,30.32,NE,37,8.0,-999.0,60,-99.99,,,-99.99,,2013-03-17 14:12:00,
2013-03-17 10:22:00,26.0,14.0,30.32,NNE,32,6.0,-999.0,59,-99.99,,,-99.99,,2013-03-17 14:22:00,
2013-03-17 10:33:00,26.0,13.0,30.32,ENE,66,7.0,-999.0,58,-99.99,,,-99.99,,2013-03-17 14:33:00,
2013-03-17 10:42:00,26.0,13.0,30.32,ENE,66,7.0,-999.0,58,-99.99,,,-99.99,,2013-03-17 14:42:00,
2013-03-17 10:53:00,26.0,12.0,30.32,NE,52,8.0,-999.0,56,-99.99,,,-99.99,,2013-03-17 14:53:00,
2013-03-17 11:02:00,27.0,13.0,30.32,NE,49,7.0,-999.0,55,-99.99,,,-99.99,,2013-03-17 15:02:00,
2013-03-17 11:12:00,27.0,13.0,30.32,NE,49,7.0,-999.0,55,-99.99,,,-99.99,,2013-03-17 15:12:00,
2013-03-17 11:23:00,27.0,13.0,30.33,ENE,72,8.0,-999.0,56,-99.99,,,-99.99,,2013-03-17 15:23:00,
2013-03-17 11:33:00,28.0,14.0,30.33,ESE,116,5.0,-999.0,54,-99.99,,,-99.99,,2013-03-17 15:33:00,
2013-03-17 11:43:00,28.0,14.0,30.33,ESE,116,5.0,-999.0,54,-99.99,,,-99.99,,2013-03-17 15:43:00,
2013-03-17 11:53:00,28.0,14.0,30.33,East,80,6.0,-999.0,56,-99.99,,,-99.99,,2013-03-17 15:53:00,
2013-03-17 12:03:00,29.0,15.0,30.33,East,101,5.0,-999.0,56,-99.99,,,-99.99,,2013-03-17 16:03:00,
2013-03-17 12:12:00,29.0,15.0,30.33,East,101,5.0,-999.0,56,-99.99,,,-99.99,,2013-03-17 16:12:00,
2013-03-17 12:23:00,29.0,14.0,30.33,NE,51,5.0,-999.0,54,-99.99,,,-99.99,,2013-03-17 16:23:00,
2013-03-17 12:33:00,29.0,14.0,30.33,SE,138,5.0,-999.0,54,-99.99,,,-99.99,,2013-03-17 16:33:00,
2013-03-17 12:43:00,29.0,14.0,30.33,SE,138,5.0,-999.0,54,-99.99,,,-99.99,,2013-03-17 16:43:00,
2013-03-17 12:52:00,30.0,16.0,30.33,ESE,110,4.0,-999.0,56,-99.99,,,-99.99,,2013-03-17 16:52:00,
2013-03-17 13:02:00,31.0,18.0,30.33,East,82,5.0,-999.0,58,-99.99,,,-99.99,,2013-03-17 17:02:00,
2013-03-17 13:12:00,31.0,18.0,30.33,East,82,5.0,-999.0,58,-99.99,,,-99.99,,2013-03-17 17:12:00,
2013-03-17 13:22:00,31.0,18.0,30.33,East,82,5.0,-999.0,58,-99.99,,,-99.99,,2013-03-17 17:22:00,
2013-03-17 13:33:00,31.0,18.0,30.33,East,82,5.0,-999.0,58,-99.99,,,-99.99,,2013-03-17 17:33:00,
2013-03-17 13:42:00,31.0,18.0,30.33,East,82,5.0,-999.0,58,-99.99,,,-99.99,,2013-03-17 17:42:00,
2013-03-17 13:53:00,32.0,19.0,30.32,East,97,5.0,-999.0,58,-99.99,,,-99.99,,2013-03-17 17:53:00,
2013-03-17 14:02:00,32.0,19.0,30.32,East,97,5.0,-999.0,58,-99.99,,,-99.99,,2013-03-17 18:02:00,
2013-03-17 14:12:00,32.0,19.0,30.32,East,97,5.0,-999.0,58,-99.99,,,-99.99,,2013-03-17 18:12:00,
2013-03-17 14:22:00,31.0,18.0,30.32,SE,146,5.0,-999.0,59,-99.99,,,-99.99,,2013-03-17 18:22:00,
2013-03-17 14:32:00,31.0,18.0,30.32,East,84,6.0,-999.0,57,-99.99,,,-99.99,,2013-03-17 18:32:00,
2013-03-17 14:42:00,31.0,18.0,30.32,East,84,6.0,-999.0,57,-99.99,,,-99.99,,2013-03-17 18:42:00,
2013-03-17 14:52:00,32.0,19.0,30.32,East,89,7.0,-999.0,59,-99.99,,,-99.99,,2013-03-17 18:52:00,
2013-03-17 15:02:00,32.0,19.0,30.32,ENE,78,7.0,-999.0,58,-99.99,,,-99.99,,2013-03-17 19:02:00,
2013-03-17 15:12:00,32.0,19.0,30.32,ENE,78,7.0,-999.0,58,-99.99,,,-99.99,,2013-03-17 19:12:00,
2013-03-17 15:22:00,32.0,19.0,30.31,NE,50,5.0,-999.0,57,-99.99,,,-99.99,,2013-03-17 19:22:00,
2013-03-17 15:33:00,32.0,18.0,30.30,SE,139,6.0,-999.0,56,-99.99,,,-99.99,,2013-03-17 19:33:00,
2013-03-17 15:42:00,32.0,18.0,30.30,SE,139,6.0,-999.0,56,-99.99,,,-99.99,,2013-03-17 19:42:00,
2013-03-17 15:53:00,32.0,19.0,30.29,ESE,113,5.0,-999.0,57,-99.99,,,-99.99,,2013-03-17 19:53:00,
2013-03-17 16:02:00,32.0,18.0,30.27,SE,125,5.0,-999.0,55,-99.99,,,-99.99,,2013-03-17 20:02:00,
2013-03-17 16:12:00,32.0,18.0,30.27,SE,125,5.0,-999.0,55,-99.99,,,-99.99,,2013-03-17 20:12:00,
2013-03-17 16:22:00,32.0,17.0,30.27,East,92,7.0,-999.0,53,-99.99,,,-99.99,,2013-03-17 20:22:00,
2013-03-17 16:33:00,32.0,18.0,30.26,East,88,8.0,-999.0,55,-99.99,,,-99.99,,2013-03-17 20:33:00,
2013-03-17 16:42:00,32.0,18.0,30.26,East,88,8.0,-999.0,55,-99.99,,,-99.99,,2013-03-17 20:42:00,
2013-03-17 16:52:00,32.0,17.0,30.26,ESE,117,7.0,-999.0,53,-99.99,,,-99.99,,2013-03-17 20:52:00,
2013-03-17 17:03:00,32.0,17.0,30.26,SE,134,8.0,-999.0,53,-99.99,,,-99.99,,2013-03-17 21:03:00,
2013-03-17 17:12:00,32.0,17.0,30.26,SE,134,8.0,-999.0,53,-99.99,,,-99.99,,2013-03-17 21:12:00,
2013-03-17 17:22:00,31.0,17.0,30.26,SE,140,8.0,-999.0,55,-99.99,,,-99.99,,2013-03-17 21:22:00,
2013-03-17 17:33:00,31.0,16.0,30.25,SE,138,6.0,-999.0,54,-99.99,,,-99.99,,2013-03-17 21:33:00,
2013-03-17 17:43:00,31.0,16.0,30.25,SE,138,6.0,-999.0,54,-99.99,,,-99.99,,2013-03-17 21:43:00,
2013-03-17 17:52:00,30.0,16.0,30.26,ESE,118,8.0,-999.0,55,-99.99,,,-99.99,,2013-03-17 21:52:00,
2013-03-17 18:03:00,30.0,14.0,30.27,SE,138,8.0,-999.0,51,-99.99,,,-99.99,,2013-03-17 22:03:00,
2013-03-17 18:13:00,29.0,13.0,30.27,East,92,7.0,-999.0,51,-99.99,,,-99.99,,2013-03-17 22:13:00,
2013-03-17 18:23:00,29.0,13.0,30.27,East,92,7.0,-999.0,51,-99.99,,,-99.99,,2013-03-17 22:23:00,
2013-03-17 18:33:00,29.0,14.0,30.27,ESE,119,6.0,-999.0,53,-99.99,,,-99.99,,2013-03-17 22:33:00,
2013-03-17 18:42:00,29.0,14.0,30.27,ESE,119,6.0,-999.0,53,-99.99,,,-99.99,,2013-03-17 22:42:00,
2013-03-17 18:52:00,29.0,15.0,30.26,East,89,7.0,-999.0,55,-99.99,,,-99.99,,2013-03-17 22:52:00,
2013-03-17 19:03:00,28.0,15.0,30.27,East,92,8.0,-999.0,57,-99.99,,,-99.99,,2013-03-17 23:03:00,
2013-03-17 19:12:00,28.0,15.0,30.27,East,92,8.0,-999.0,57,-99.99,,,-99.99,,2013-03-17 23:12:00,
2013-03-17 19:22:00,28.0,16.0,30.27,East,80,6.0,-999.0,59,-99.99,,,-99.99,,2013-03-17 23:22:00,
2013-03-17 19:33:00,27.0,15.0,30.27,ENE,69,7.0,-999.0,60,-99.99,,,-99.99,,2013-03-17 23:33:00,
2013-03-17 19:42:00,27.0,15.0,30.27,ENE,69,7.0,-999.0,60,-99.99,,,-99.99,,2013-03-17 23:42:00,
2013-03-17 19:52:00,27.0,15.0,30.26,ESE,103,6.0,-999.0,60,-99.99,,,-99.99,,2013-03-17 23:52:00,
2013-03-17 20:03:00,27.0,15.0,30.26,East,84,6.0,-999.0,60,-99.99,,,-99.99,,2013-03-18 00:03:00,
2013-03-17 20:12:00,27.0,15.0,30.26,East,84,6.0,-999.0,60,-99.99,,,-99.99,,2013-03-18 00:12:00,
2013-03-17 20:22:00,27.0,15.0,30.27,ENE,76,6.0,-999.0,59,-99.99,,,-99.99,,2013-03-18 00:22:00,
2013-03-17 20:33:00,26.0,14.0,30.26,East,93,5.0,-999.0,60,-99.99,,,-99.99,,2013-03-18 00:33:00,
2013-03-17 20:42:00,26.0,14.0,30.26,East,93,5.0,-999.0,60,-99.99,,,-99.99,,2013-03-18 00:42:00,
2013-03-17 20:52:00,26.0,14.0,30.26,East,92,6.0,-999.0,61,-99.99,,,-99.99,,2013-03-18 00:52:00,
2013-03-17 21:02:00,26.0,15.0,30.26,ESE,103,6.0,-999.0,62,-99.99,,,-99.99,,2013-03-18 01:02:00,
2013-03-17 21:12:00,26.0,15.0,30.26,ESE,103,6.0,-999.0,62,-99.99,,,-99.99,,2013-03-18 01:12:00,
2013-03-17 21:22:00,25.0,15.0,30.26,East,80,5.0,-999.0,64,-99.99,,,-99.99,,2013-03-18 01:22:00,
2013-03-17 21:32:00,25.0,15.0,30.26,East,84,5.0,-999.0,65,-99.99,,,-99.99,,2013-03-18 01:32:00,
2013-03-17 21:42:00,25.0,15.0,30.26,East,84,5.0,-999.0,65,-99.99,,,-99.99,,2013-03-18 01:42:00,
2013-03-17 21:52:00,25.0,15.0,30.26,East,101,4.0,-999.0,66,-99.99,,,-99.99,,2013-03-18 01:52:00,
2013-03-17 22:02:00,25.0,16.0,30.25,East,98,6.0,-999.0,67,-99.99,,,-99.99,,2013-03-18 02:02:00,
2013-03-17 22:12:00,25.0,16.0,30.25,East,98,6.0,-999.0,67,-99.99,,,-99.99,,2013-03-18 02:12:00,
2013-03-17 22:22:00,25.0,16.0,30.24,East,99,6.0,-999.0,68,-99.99,,,-99.99,,2013-03-18 02:22:00,
2013-03-17 22:32:00,25.0,16.0,30.23,ESE,105,4.0,-999.0,69,-99.99,,,-99.99,,2013-03-18 02:32:00,
2013-03-17 22:42:00,25.0,16.0,30.23,ESE,105,4.0,-999.0,69,-99.99,,,-99.99,,2013-03-18 02:42:00,
2013-03-17 22:52:00,25.0,16.0,30.23,East,90,7.0,-999.0,69,-99.99,,,-99.99,,2013-03-18 02:52:00,
2013-03-17 23:03:00,25.0,17.0,30.22,ENE,71,6.0,-999.0,70,-99.99,,,-99.99,,2013-03-18 03:03:00,
2013-03-17 23:11:00,25.0,17.0,30.22,ENE,71,6.0,-999.0,70,-99.99,,,-99.99,,2013-03-18 03:11:00,
2013-03-17 23:22:00,25.0,17.0,30.22,East,89,7.0,-999.0,70,-99.99,,,-99.99,,2013-03-18 03:22:00,
2013-03-17 23:33:00,24.0,16.0,30.21,East,90,5.0,-999.0,70,-99.99,,,-99.99,,2013-03-18 03:33:00,
2013-03-17 23:42:00,24.0,16.0,30.21,East,90,5.0,-999.0,70,-99.99,,,-99.99,,2013-03-18 03:42:00,
2013-03-17 23:53:00,24.0,16.0,30.20,ESE,104,6.0,-999.0,70,-99.99,,,-99.99,,2013-03-18 03:53:00,